User: anonymous   Login
Location: Unspecified
(0.0000°N, 0.0000°E)
Time: 06:15:40
(UTC+02:00)
Language:

GPS 2-12 Rocket1 - Orbit

View from above orbital plane
View from above orbital plane
View from above satellite
View from above satellite

Ground track
Ground track

The orbit data is extracted from the following two-line orbital elements,

1 21891U 92009B   14297.42899854  .00002566  00000-0  26671-3 0  3283
2 21891 019.9979 326.8062 0049121 037.7412 322.6438 14.81184922222627
Epoch (UTC): 24 October 2014 10:17:45
Eccentricity: 0.0049121
inclination: 19.9979°
perigee height: 591 km
apogee height: 660 km
right ascension of ascending node: 326.8062°
argument of perigee: 37.7412°
revolutions per day: 14.81184922
mean anomaly at epoch: 322.6438°
orbit number at epoch: 22262

The dashed part of the orbit path shows where the satellite is in the earth's shadow,  

DLR